sat.trackr.live / text

‹ back to catalog

KUIPER-00594

NORAD 69279 · 2026-118N

PAYLOAD ACTIVE UNKNOWN

§ Identity

Operator
Country
US
Launch date
2026-05-29
Launch site
AFETR
Launch vehicle
Mass (kg)
RCS (m²)

External: N2YO · Heavens-Above · Gunter

§ Orbital elements

Epoch: 2026-09-20T05:12:52.225632Z

Period
97.30 min
Inclination
51.9036°
Eccentricity
0.0001269
Mean motion
14.79939301 rev/d
Perigee alt
628.6 km
Apogee alt
630.4 km
Semi-major
7,007.7 km
B*
2.4373e-4
RAAN
327.9580°
Arg perigee
83.9450°
Mean anomaly
276.1656°
Rev number
1,840

§ Raw data

KUIPER-005941 69279U 26118N   26263.21727113  .00001637  00000+0  24373-3 0  99922 69279  51.9036 327.9580 0001269  83.9450 276.1656 14.79939301 18402

JSON: /api/v1/satellites/69279 · /tle

For live sub-satellite position, see the globe view (requires WebGL).

§ Visibility from observer

Set your observer location to see the next 7 days of passes ≥ 10°. The values pass through the URL so the page stays shareable.

No JS? Fill the form by hand. The geolocation button needs JavaScript.